Location: Hoover
(45.1124°N, 103.2678°W)
Time: 03:45:22
(UTC+00:00)

N. Korean satellite - Pass Details

Date: 01 December 2020
Orbit: 453 x 502 km, 97.2° (Epoch: 16 January)

Event Time Altitude Azimuth Distance (km) Brightness Sun altitude
Rises 00:37:04 0° 211° (SSW) 2,457 10.9 -14.4°
Maximum altitude 00:41:40 13° 269° (W) 1,435 10.1 -15.2°
Drops below altitude 10° 00:43:18 10° 298° (WNW) 1,611 9.9 -15.5°
Sets 00:46:20 0° 328° (NNW) 2,503 10.4 -16.0°
